Location: Newark
(43.0000°N, 1.6781°W)
Time: 06:18:54
(UTC+00:00)

CAS-4B - Pass Details

Date: 07 December 2022
Orbit: 515 x 531 km, 43.0° (Epoch: 27 January)

Event Time Altitude Azimuth Distance (km) Brightness Sun altitude
Exits shadow 06:11:45 12° 247° (WSW) 1,636 ? -12.8°
Maximum altitude 06:15:26 68° 165° (SSE) 573 ? -12.2°
Drops below altitude 10° 06:19:30 10° 82° (E) 1,785 ? -11.5°
Sets 06:21:45 0° 80° (E) 2,679 ? -11.1°
